Location: Albuquerque Trailhead
(34.7934°N, 106.3736°W)
Time: 03:01:31
(UTC+00:00)

Cosmos 1072 Rocket - Pass Details

Date: 20 June 2021
Orbit: 948 x 1009 km, 82.9° (Epoch: 29 July)

Event Time Altitude Azimuth Distance (km) Brightness Sun altitude
Rises 06:15:51 0° 352° (N) 3,737 8.7 -30.5°
Reaches altitude 10° 06:18:24 10° 351° (N) 2,778 7.8 -30.6°
Enters shadow 06:24:32 79° 298° (WNW) 1,015 4.5 -30.9°
